Regional Weather Roundup
Issued by NWS

Home | Current Version | Previous Version | Text Only | Print | Product List | Glossary On
Versions: 1 2 3 4 5 6 7 8 9 10 11 12 13 14 15 16 17 18 19 20 21 22 23 24 25 26 27 28 29 30 31 32 33 34 35 36 37 38 39 40 41 42 43 44 45 46 47 48 49 50
000
ASUS46 KSTO 231315
RWRCA

NORTHERN AND CENTRAL CA REGIONAL WEATHER ROUNDUP
NATIONAL WEATHER SERVICE SACRAMENTO CA
600 AM PDT SUN JUL 23 2017

NOTE: FAIR INDICATES FEW OR NO CLOUDS BELOW 12,000 FEET WITH NO
SIGNIFICANT WEATHER AND/OR OBSTRUCTIONS TO VISIBILITY.

CAZ001-003-231400-
NORTHWEST AREA

CITY           SKY/WX    TMP DP  RH WIND       PRES   REMARKS
CRESCENT CITY  FOG       54  54 100 CALM      29.87S VSB 3/4
UKIAH          CLEAR     61  55  81 CALM      29.83S
$$

CAZ006-505>513-231400-
BAY AREA

CITY           SKY/WX    TMP DP  RH WIND       PRES   REMARKS
SANTA ROSA     CLEAR     54  50  86 CALM      29.82R
SAN RAFAEL     N/A       59  MM  MM MISG
NAPA           CLEAR     57  53  86 SE3       29.83R
CONCORD        PTCLDY    63  56  78 CALM      29.81S
OAKLAND CITY   N/A      MM  MM  MM MISG
OAKLAND        PTCLDY    60  56  86 N3        29.84R
SAN FRAN CITY  N/A       56  MM  86 MISG
SAN FRAN ARPT  PTCLDY    56  52  86 W9        29.83S
LIVERMORE      CLEAR     65  49  56 CALM      29.82R
HAYWARD        CLEAR     61  52  72 N3        29.83S
REDWOOD CITY   N/A       59  MM  80 MISG
MOFFETT ARPT   CLEAR     63  58  83 CALM      29.84R
SAN JOSE ARPT  PTCLDY    64  60  87 W5        29.83R
$$
CAZ034-037-514>518-231400-
CENTRAL COAST

CITY           SKY/WX    TMP DP  RH WIND       PRES   REMARKS
WATSONVILLE    FOG       53  53 100 CALM      29.87S VSB 1/4
SALINAS        FOG       53  53 100 CALM      29.87R VSB 1
MONTEREY       CLOUDY    52  50  93 NE3       29.87S
SAN LUIS OBISP CLOUDY    54  53  97 S3        29.88R FOG
SANTA MARIA    CLOUDY    54  54 100 CALM      29.88R FOG
$$
CAZ015-016-231400-
NORTHERN SACRAMENTO VALLEY

CITY           SKY/WX    TMP DP  RH WIND       PRES   REMARKS
REDDING        PTCLDY    75  59  57 N3        29.81S
RED BLUFF      CLEAR     73  56  54 NW5       29.81R
OROVILLE       CLEAR     72  59  63 N3        29.81R
$$
CAZ016>018-231400-
SOUTHERN SACRAMENTO VALLEY

CITY           SKY/WX    TMP DP  RH WIND       PRES   REMARKS
AUBURN         CLEAR     75  52  43 E8        29.87R
BEALE AFB      CLEAR     70  55  59 CALM      29.78R
LINCOLN        FAIR      68  52  56 CALM      29.79R
MARYSVILLE     CLEAR     70  57  63 CALM      29.80R
SAC INTL ARPT  PTCLDY    69  53  56 S7        29.78R
MATHER AIRPORT PTCLDY    68  52  56 SE6       29.79R
DOWNTOWN SAC   N/A       71  MM  MM MISG
SAC EXEC ARPT  PTCLDY    70  54  56 S3        29.79R
VACAVILLE      PTCLDY    66  54  65 CALM      29.79R
TRAVIS AFB     PTCLDY    69  51  52 W14       29.77R
$$
CAZ019>021-231400-
SAN JOAQUIN VALLEY

CITY           SKY/WX    TMP DP  RH WIND       PRES   REMARKS
STOCKTON       PTCLDY    66  56  70 CALM      29.79R
MODESTO        CLEAR     71  59  65 CALM      29.79R
MERCED         CLEAR     68  57  68 CALM      29.79S
LEMOORE        CLEAR     64  49  57 W8        29.81R
FRESNO         PTCLDY    74  58  57 CALM      29.81R
HANFORD        CLEAR     64  60  87 CALM      29.81R
PORTERVILLE      N/A     68  57  68 SE5       29.83R
BAKERSFIELD    CLEAR     79  53  40 CALM      29.81S
$$
CAZ011-012-071-231400-
NORTHERN MOUNTAINS

CITY           SKY/WX    TMP DP  RH WIND       PRES   REMARKS
YREKA          PTCLDY    60  49  66 CALM      30.01S
MOUNT SHASTA   PTCLDY    60  51  72 CALM      30.03S
ALTURAS        CLEAR     56  39  53 SE3       30.08S
$$
CAZ011-012-071-231400-
SIERRA NEVADA MTNS

CITY           SKY/WX    TMP DP  RH WIND       PRES   REMARKS
TRUCKEE        CLEAR     45  41  87 CALM      30.20S
TAHOE VLY ARPT CLEAR     49  45  86 CALM      30.21S
MAMMOTH LAKES  FAIR      52  36  55 CALM      30.28S
$$




USA.gov is the U.S. government's official web portal to all federal, state and local government web resources and services.